Location: Newark
(48.1500°N, 2.9667°W)
Time: 08:21:20
(UTC+00:00)

Vanguard 1 - Visible Passes

Search period start: 21 January 2020 00:00
Search period end: 31 January 2020 00:00
Orbit: 651 x 3832 km, 34.2° (Epoch: 20 January)

Date Brightness Start Highest point End Pass type
(mag) Time Alt. Az. Time Alt. Az. Time Alt. Az.
21 Jan 11.5 18:30:02 10° SSW 18:33:17 18° SSE 18:36:36 12° SE visible
21 Jan 12.1 20:47:41 10° SW 20:49:19 17° SW 20:49:19 17° SW visible
22 Jan 11.4 18:50:19 10° SSW 18:53:52 20° SSE 18:56:27 15° SE visible
22 Jan 12.4 21:08:33 10° SW 21:09:10 13° SW 21:09:10 13° SW visible
23 Jan 11.4 19:10:48 10° SW 19:14:30 21° S 19:16:18 18° SSE visible
24 Jan 11.5 19:31:27 10° SW 19:35:11 20° S 19:36:10 20° SSE visible
25 Jan 11.6 17:34:14 10° SSW 17:36:44 15° SSE 17:39:27 10° SE visible
25 Jan 11.6 19:52:15 10° SW 19:55:53 19° S 19:56:04 19° S visible
26 Jan 11.5 17:54:32 10° SSW 17:57:20 16° S 18:00:28 10° SE visible
26 Jan 11.8 20:13:15 10° SW 20:15:59 16° SSW 20:15:59 16° SSW visible
27 Jan 11.5 18:15:05 10° SW 18:17:59 17° S 18:21:16 10° SE visible
27 Jan 12.1 20:34:37 10° SW 20:35:56 13° SSW 20:35:56 13° SSW visible
28 Jan 11.6 18:35:50 10° SW 18:38:38 16° S 18:41:50 10° SE visible
29 Jan 11.7 18:56:49 10° SW 18:59:19 14° S 19:02:09 10° SSE visible
30 Jan 11.9 19:18:13 10° SSW 19:20:00 12° S 19:21:56 10° S visible
